Location: Girdwood
(60.9430°N, 149.1660°W)
Time: 10:12:35
(UTC-09:00)

Iridium 86 - Visible Passes

Search period start: 19 February 2017 00:00
Search period end: 01 March 2017 00:00
Orbit: 776 x 779 km, 86.4° (Epoch: 19 February)

Date Brightness Start Highest point End Pass type
(mag) Time Alt. Az. Time Alt. Az. Time Alt. Az.
19 Feb 7.9 03:04:15 10° NNE 03:08:00 19° ENE 03:11:43 10° ESE visible
19 Feb 5.7 04:44:29 10° N 04:49:44 71° E 04:53:16 21° SSE visible
19 Feb 6.3 06:25:40 10° NNW 06:30:06 29° WNW 06:33:39 14° SW visible
19 Feb 8.0 19:34:44 10° WSW 19:38:54 24° WNW 19:43:06 10° N visible
20 Feb 8.3 02:31:13 10° NNE 02:33:55 14° NE 02:36:38 10° E visible
20 Feb 6.4 04:10:59 10° N 04:16:04 48° ENE 04:18:56 24° SE visible
20 Feb 5.9 05:51:54 10° NNW 05:56:48 42° W 05:59:21 25° SW visible
20 Feb 7.3 07:35:01 10° NW 07:36:13 11° WNW 07:37:25 10° WNW visible
20 Feb 7.4 19:00:18 10° SW 19:05:01 33° WNW 19:09:45 10° N visible
20 Feb 8.8 20:47:14 10° NW 20:47:32 10° NW 20:47:50 10° NW visible
21 Feb 8.6 01:59:32 10° NE 01:59:45 10° NE 01:59:58 10° NE visible
21 Feb 7.1 03:37:32 10° N 03:42:16 33° ENE 03:44:52 21° ESE visible
21 Feb 5.5 05:18:13 10° N 05:23:23 62° W 05:25:18 37° SSW visible
21 Feb 7.0 07:00:06 10° NNW 07:03:10 16° WNW 07:05:44 12° W visible
21 Feb 8.4 20:10:39 10° W 20:13:21 14° NW 20:16:04 10° NNW visible
22 Feb 7.6 03:04:12 10° N 03:08:23 24° ENE 03:10:57 17° E visible
22 Feb 5.4 04:44:36 10° N 04:49:53 89° E 04:51:24 48° S visible
22 Feb 6.6 06:26:00 10° NNW 06:30:02 23° WNW 06:31:50 19° WSW visible
22 Feb 8.2 19:35:33 10° WSW 19:39:18 19° WNW 19:43:02 10° NNW visible
23 Feb 8.0 02:31:00 10° NNE 02:34:23 17° NE 02:37:09 12° E visible
23 Feb 5.9 04:11:04 10° N 04:16:17 61° ENE 04:17:35 46° SE visible
23 Feb 6.2 05:52:09 10° NNW 05:56:47 33° W 05:58:02 29° WSW visible
23 Feb 7.8 19:00:55 10° WSW 19:05:20 27° WNW 19:09:46 10° N visible
24 Feb 8.3 01:58:09 10° NNE 02:00:16 12° NE 02:02:23 10° ENE visible
24 Feb 6.6 03:37:35 10° N 03:42:33 41° ENE 03:43:51 35° ESE visible
24 Feb 5.7 05:18:25 10° NNW 05:23:27 49° W 05:24:18 44° WSW visible
24 Feb 7.3 07:00:50 10° NW 07:03:00 13° WNW 07:04:45 11° W visible
24 Feb 8.5 20:12:07 10° WNW 20:13:51 11° NW 20:15:35 10° NNW visible
25 Feb 7.3 03:04:11 10° N 03:08:44 29° ENE 03:10:10 25° E visible
25 Feb 5.4 04:44:46 10° N 04:50:00 73° W 04:50:37 65° SW visible
25 Feb 6.9 06:26:25 10° NNW 06:29:56 18° WNW 06:31:04 17° W visible
25 Feb 8.3 19:36:33 10° W 19:39:43 16° NW 19:42:54 10° NNW visible
26 Feb 7.7 02:30:53 10° N 02:34:48 21° ENE 02:36:30 18° E visible
26 Feb 5.6 04:11:11 10° N 04:16:27 77° E 04:16:57 70° SE visible
26 Feb 6.4 05:52:26 10° NNW 05:56:45 26° WNW 05:57:25 26° W visible
26 Feb 8.1 19:01:40 10° WSW 19:05:42 22° WNW 19:09:44 10° N visible
27 Feb 8.1 01:57:47 10° NNE 02:00:45 15° NE 02:02:54 12° ENE visible
27 Feb 6.2 03:37:40 10° N 03:42:48 52° ENE 03:43:21 50° E visible
27 Feb 6.0 05:18:38 10° NNW 05:23:28 38° W 05:23:48 38° W visible
28 Feb 8.4 01:25:19 10° NNE 01:26:36 11° NE 01:27:52 10° ENE visible
28 Feb 6.8 03:04:13 10° N 03:09:02 36° ENE 03:09:45 34° E visible
28 Feb 5.5 04:44:57 10° NNW 04:50:05 57° W 04:50:13 57° W visible
28 Feb 7.1 06:26:59 10° NNW 06:29:47 15° WNW 06:30:41 14° WNW visible
28 Feb 8.4 19:37:46 10° WNW 19:40:11 13° NW 19:42:37 10° NNW visible
